User: anonymous   Login
Location: Overspoor
(51.4747°N, 5.6641°E)
Time: 11:55:22
(UTC+02:00)
Language:

STARS - Orbit

View from above orbital plane
View from above orbital plane
View from above satellite
View from above satellite

Ground track
Ground track

The orbit data is extracted from the following two-line orbital elements,

1 33498U 09002G   22179.87884522  .00000737  00000-0  10466-3 0  9990
2 33498  98.1681  72.0744 0009799 208.8333 151.2338 14.80017991723125
Epoch (UTC): 28 June 2022 21:05:32
Eccentricity: 0.0009799
inclination: 98.1681°
perigee height: 622 km
apogee height: 636 km
right ascension of ascending node: 72.0744°
argument of perigee: 208.8333°
revolutions per day: 14.80017991
mean anomaly at epoch: 151.2338°
orbit number at epoch: 72312

The dashed part of the orbit path shows where the satellite is in the earth's shadow,  

DLR